Location: Aubervilles
(48.9167°N, 2.3833°E)
Time: 14:49:06
(UTC+00:00)

Okean-O - Pass Details

Date: 03 February 2023
Orbit: 637 x 638 km, 98.1° (Epoch: 29 March)

Event Time Altitude Azimuth Distance (km) Brightness Sun altitude
Exits shadow 19:25:54 23° 0° (N) 1,355 4.3 -25.6°
Drops below altitude 10° 19:27:40 10° 353° (N) 2,043 5.3 -25.9°
Sets 19:29:55 0° 350° (N) 2,957 6.2 -26.3°
